Weather History for Hill City, KS

Change the Weather History Date:

Sunday, November 3, 2013

  Actual Average Record
Temperature  
Mean Temperature 59 °F 46 °F  
Max Temperature 73 °F 60 °F 83 °F (1988)
Min Temperature 45 °F 33 °F -4 °F (1991)
Degree Days  
Heating Degree Days 6    
Growing Degree Days 9 (Base 50)    
Moisture  
Dew Point 32 °F    
Average Humidity 42    
Maximum Humidity 58    
Minimum Humidity 21    
Precipitation  
Precipitation T in 0.05 in 0.06 in (1996)
Month to date precipitation T 0.15  
Year to date precipitation 16.87 21.43  
Sea Level Pressure  
Sea Level Pressure 29.68 in    
Wind  
Wind Speed 15 mph (South)    
Max Wind Speed 32 mph    
Max Gust Speed 46 mph    
Visibility 10 miles    
Events      
T = Trace of Precipitation, MM = Missing Value Source: NWS Daily Summary

Daily Weather History Graph

Daily Weather History Graph

Search for Another Location

Airport:

Trip Planner

Search our weather history database for the weather conditions in past years. The results will help you decide how hot, cold, wet, or windy it might be!

Date:

Astronomy

Nov. 03, 2013 Rise Set
Actual Time 7:09 AM CST 5:35 PM CST
Civil Twilight 6:41 AM CST 6:03 PM CST
Nautical Twilight 6:10 AM CST 6:35 PM CST
Astronomical Twilight 5:38 AM CST 7:06 PM CST
Moon 7:15 AM CST (11/3) 5:51 PM CST (11/3)
Length of Visible Light 11h 21m
Length of Day
10h 25m
New Moon, 0% of the Moon is Illuminated
Nov 3
New Moon
Nov 9
First Quarter
Nov 17
Full
Nov 25
Last Quarter
Dec 2
New

Hourly Weather History & Observations

Time (CST) Temp. Windchill Dew Point Humidity Pressure Visibility Wind Dir Wind Speed Gust Speed Precip Events Conditions
12:53 AM 46.0 °F 41.9 °F 30.9 °F 56% 29.94 in 10.0 mi SE 8.1 mph - N/A   Clear
1:53 AM 45.0 °F 39.3 °F 30.9 °F 58% 29.90 in 10.0 mi South 11.5 mph 17.3 mph N/A   Clear
1:53 AM 46.0 °F 40.2 °F 30.9 °F 56% 29.87 in 10.0 mi South 12.7 mph 19.6 mph N/A   Clear
2:53 AM 45.0 °F 39.7 °F 30.9 °F 58% 29.85 in 10.0 mi South 10.4 mph - N/A   Clear
3:53 AM 46.0 °F 39.9 °F 30.9 °F 56% 29.82 in 10.0 mi South 13.8 mph 20.7 mph N/A   Clear
4:53 AM 45.0 °F 37.9 °F 30.9 °F 58% 29.79 in 10.0 mi South 16.1 mph 24.2 mph N/A   Clear
5:53 AM 45.0 °F 38.2 °F 30.0 °F 56% 29.78 in 10.0 mi South 15.0 mph 21.9 mph N/A   Clear
6:53 AM 46.0 °F 40.6 °F 30.0 °F 54% 29.75 in 10.0 mi South 11.5 mph 18.4 mph N/A   Clear
7:53 AM 46.9 °F - 30.9 °F 54% 29.75 in 10.0 mi South 11.5 mph - N/A   Clear
8:53 AM 52.0 °F - 30.9 °F 45% 29.72 in 10.0 mi South 13.8 mph 28.8 mph N/A   Clear
9:53 AM 54.0 °F - 30.9 °F 41% 29.70 in 10.0 mi South 16.1 mph 26.5 mph N/A   Clear
10:53 AM 57.0 °F - 32.0 °F 39% 29.68 in 10.0 mi South 16.1 mph 31.1 mph N/A   Clear
11:53 AM 62.1 °F - 33.1 °F 34% 29.65 in 8.0 mi South 18.4 mph 24.2 mph N/A   Clear
12:53 PM 68.0 °F - 32.0 °F 26% 29.55 in 10.0 mi South 23.0 mph 36.8 mph 0.00 in   Clear
1:53 PM 72.0 °F - 30.9 °F 22% 29.52 in 9.0 mi South 32.2 mph 46.0 mph N/A   Overcast
2:53 PM 71.1 °F - 30.9 °F 23% 29.51 in 9.0 mi South 24.2 mph 42.6 mph 0.00 in   Scattered Clouds
3:53 PM 73.0 °F - 30.9 °F 21% 29.50 in 10.0 mi South 31.1 mph 41.4 mph N/A   Clear
4:53 PM 68.0 °F - 33.1 °F 27% 29.51 in 10.0 mi South 24.2 mph 34.5 mph N/A   Clear
5:53 PM 64.0 °F - 34.0 °F 33% 29.53 in 10.0 mi South 21.9 mph 32.2 mph N/A   Clear
6:53 PM 61.0 °F - 33.1 °F 35% 29.55 in 10.0 mi South 20.7 mph 31.1 mph N/A   Clear
7:53 PM 60.1 °F - 34.0 °F 38% 29.57 in 10.0 mi South 21.9 mph 32.2 mph N/A   Clear
8:53 PM 57.9 °F - 34.0 °F 41% 29.59 in 10.0 mi SSW 15.0 mph 25.3 mph N/A   Clear
9:53 PM 55.9 °F - 34.0 °F 44% 29.61 in 10.0 mi SSW 10.4 mph 19.6 mph N/A   Clear
10:53 PM 55.0 °F - 33.1 °F 43% 29.62 in 10.0 mi SW 8.1 mph 16.1 mph N/A   Clear